Kirksville, MO

2:08 AM CDT on May 26, 2017 (GMT -0500)
Kirksville Regional

Weather History for KIRK - March, 2011

Change the Weather History Date:

Monday, March 28, 2011

  Actual Average Record
Temperature  
Mean Temperature 36 °F 46 °F  
Max Temperature 44 °F 57 °F 79 °F (1945)
Min Temperature 28 °F 35 °F 13 °F (1921)
Degree Days  
Heating Degree Days 29 19  
Month to date heating degree days 654 697  
Since 1 July heating degree days 5358 5230  
Cooling Degree Days 0 0  
Month to date cooling degree days 0 0  
Year to date cooling degree days 0 0  
Moisture  
Dew Point 19 °F    
Average Humidity 48    
Maximum Humidity 63    
Minimum Humidity 33    
Precipitation  
Precipitation T in 0.09 in 1.50 in (1938)
Month to date precipitation 1.85 2.31  
Year to date precipitation 3.42 5.11  
Sea Level Pressure  
Sea Level Pressure 30.20 in    
Wind  
Wind Speed 9 mph (East)    
Max Wind Speed 20 mph    
Max Gust Speed 23 mph    
Visibility 10 miles    
Events Snow    
T = Trace of Precipitation, MM = Missing Value Source: NWS Daily Summary

Daily Weather History Graph

Daily Weather History Graph

Search for Another Location

Airport or City:

Trip Planner

Search our weather history database for the weather conditions in past years. The results will help you decide how hot, cold, wet, or windy it might be!

Date:

Astronomy

Mar. 28, 2011 Rise Set
Actual Time 7:00 AM CDT 7:30 PM CDT
Civil Twilight 6:33 AM CDT 7:57 PM CDT
Nautical Twilight 6:01 AM CDT 8:29 PM CDT
Astronomical Twilight 5:28 AM CDT 9:02 PM CDT
Moon 3:53 AM CDT (3/28) 2:11 PM CDT (3/28)
Length of Visible Light 13h 23m
Length of Day
12h 29m
Waning Crescent, 29% of the Moon is Illuminated
Mar 28
Waning Crescent
Apr 3
New
Apr 11
First Quarter
Apr 17
Full
Apr 24
Last Quarter

Hourly Weather History & Observations

Time (CDT) Temp. Windchill Dew Point Humidity Pressure Visibility Wind Dir Wind Speed Gust Speed Precip Events Conditions
12:55 AM 34.0 °F 29.8 °F 19.0 °F 54% 30.18 in 10.0 mi NE 4.6 mph - N/A   Overcast
1:55 AM 33.1 °F 30.0 °F 19.0 °F 56% 30.19 in 10.0 mi ENE 3.5 mph - N/A   Overcast
2:55 AM 33.1 °F 26.1 °F 19.0 °F 56% 30.20 in 10.0 mi East 8.1 mph - N/A   Overcast
3:55 AM 33.1 °F 28.7 °F 19.0 °F 56% 30.19 in 10.0 mi East 4.6 mph - N/A   Overcast
4:55 AM 32.0 °F 23.6 °F 19.9 °F 61% 30.20 in 10.0 mi East 10.4 mph - N/A   Overcast
5:55 AM 30.9 °F 22.8 °F 18.0 °F 59% 30.23 in 10.0 mi East 9.2 mph - N/A   Overcast
6:55 AM 28.9 °F 18.6 °F 18.0 °F 64% 30.22 in 10.0 mi East 12.7 mph - N/A   Clear
7:55 AM 28.9 °F 22.8 °F 17.1 °F 61% 30.26 in 10.0 mi East 5.8 mph - N/A   Clear
8:55 AM 32.0 °F 22.5 °F 16.0 °F 52% 30.25 in 10.0 mi East 12.7 mph - N/A   Clear
9:55 AM 34.0 °F 25.0 °F 17.1 °F 50% 30.25 in 10.0 mi East 12.7 mph - N/A   Clear
10:55 AM 36.0 °F 29.0 °F 17.1 °F 46% 30.27 in 10.0 mi East 9.2 mph - N/A   Clear
11:55 AM 39.0 °F 33.4 °F 17.1 °F 41% 30.27 in 10.0 mi East 8.1 mph 16.1 mph N/A   Clear
12:55 PM 42.1 °F 37.1 °F 18.0 °F 38% 30.23 in 10.0 mi ENE 8.1 mph 17.3 mph N/A   Clear
1:55 PM 42.1 °F 35.2 °F 18.0 °F 38% 30.21 in 10.0 mi ENE 12.7 mph - N/A   Clear
2:55 PM 44.1 °F 38.6 °F 18.0 °F 35% 30.17 in 10.0 mi East 10.4 mph - N/A   Clear
3:55 PM 42.1 °F 35.2 °F 17.1 °F 37% 30.16 in 10.0 mi East 12.7 mph - N/A   Clear
4:55 PM 42.8 °F 36.6 °F 17.6 °F 36% 30.12 in 10.0 mi East 11.5 mph - N/A   Clear
5:55 PM 42.1 °F 36.1 °F 19.0 °F 40% 30.15 in 10.0 mi East 10.4 mph - N/A   Mostly Cloudy
6:55 PM 41.0 °F 35.2 °F 19.0 °F 41% 30.15 in 10.0 mi East 9.2 mph - N/A   Scattered Clouds
7:55 PM 39.9 °F 35.1 °F 19.0 °F 43% 30.15 in 10.0 mi East 6.9 mph - N/A   Overcast
8:55 PM 37.9 °F - 19.9 °F 48% 30.18 in 10.0 mi Calm Calm - N/A   Overcast
9:55 PM 37.0 °F 29.3 °F 23.0 °F 57% 30.19 in 8.0 mi SSE 11.5 mph 16.1 mph N/A   Overcast
10:55 PM 37.9 °F 33.5 °F 25.0 °F 60% 30.19 in 10.0 mi NE 5.8 mph - 0.00 in   Overcast
11:55 PM 35.1 °F 28.6 °F 28.0 °F 76% 30.18 in 5.0 mi NE 8.1 mph - 0.00 in Snow Light Snow